User: anonymous   Login
Location: Unspecified
(0.0000°N, 0.0000°E)
Time: 14:35:48
(UTC+00:00)
Language:

DELFI C3 - Orbit

View from above orbital plane
View from above orbital plane
View from above satellite
View from above satellite

Ground track
Ground track

The orbit data is extracted from the following two-line orbital elements,

1 32789U 08021G   21267.66865510  .00002961  00000-0  18858-3 0  9996
2 32789  97.3692 299.2037 0012445 153.7322 206.4541 15.09439014731793
Epoch (UTC): 24 September 2021 16:02:51
Eccentricity: 0.0012445
inclination: 97.3692°
perigee height: 529 km
apogee height: 546 km
right ascension of ascending node: 299.2037°
argument of perigee: 153.7322°
revolutions per day: 15.09439014
mean anomaly at epoch: 206.4541°
orbit number at epoch: 73179

The dashed part of the orbit path shows where the satellite is in the earth's shadow,  

DLR